GW2292 Weather Reports


Display with metric or nautical units.
time (UTC)temp
F
wind
direction
speed
MPH
gust
MPH
rain 1hr
in
rain 24hr
in
rain mn
in
humidity
%
barometer
mb
20260507232022 67 346 2.0 14.0 0.00 0.00 0.00 82 1014.1
20260507231518 68 296 7.0 13.0 0.00 0.00 0.00 80 1013.9
20260507231016 67 297 4.0 15.0 0.00 0.00 0.00 83 1014.1
20260507230513 67 288 4.0 14.0 0.00 0.00 0.00 82 1014.0
20260507230009 68 291 9.0 16.0 0.00 0.00 0.00 80 1014.1
20260507225504 69 282 4.0 13.0 0.00 0.00 0.00 79 1014.1
20260507225000 68 282 5.0 17.0 0.00 0.00 0.00 81 1014.1
20260507224456 69 281 12.0 13.0 0.00 0.00 0.00 79 1014.2
20260507223953 68 317 3.0 16.0 0.00 0.00 0.00 82 1014.4
20260507223449 67 232 2.0 14.0 0.00 0.00 0.00 83 1014.4
20260507222947 67 275 12.0 14.0 0.00 0.00 0.00 83 1014.2
20260507222443 68 316 5.0 17.0 0.00 0.00 0.00 82 1014.3
20260507221940 67 284 15.0 17.0 0.00 0.00 0.00 81 1014.4
20260507221437 69 265 4.0 16.0 0.00 0.00 0.00 80 1014.3
20260507220933 69 267 2.0 10.0 0.00 0.00 0.00 79 1014.5
20260507220431 69 230 2.0 13.0 0.00 0.00 0.00 79 1014.5
20260507215927 69 247 3.0 11.0 0.00 0.00 0.00 78 1014.7
20260507215424 69 280 2.0 17.0 0.00 0.00 0.00 79 1014.7
20260507214921 70 290 4.0 11.0 0.00 0.00 0.00 76 1014.8
20260507214419 71 284 4.0 7.0 0.00 0.00 0.00 75 1014.8
20260507213914 71 253 2.0 8.0 0.00 0.00 0.00 76 1014.9
20260507213411 71 283 2.0 10.0 0.00 0.00 0.00 77 1015.1
20260507212908 71 248 3.0 9.0 0.00 0.00 0.00 75 1014.8
20260507212403 72 225 5.0 10.0 0.00 0.00 0.00 76 1014.6
20260507211900 72 286 2.0 6.0 0.00 0.00 0.00 77 1014.9
20260507211357 71 257 3.0 12.0 0.00 0.00 0.00 78 1015.1
20260507210854 71 207 4.0 12.0 0.00 0.00 0.00 77 1014.9
20260507210351 72 205 3.0 13.0 0.00 0.00 0.00 77 1015.1
20260507205847 72 225 1.0 7.0 0.00 0.00 0.00 76 1015.0
20260507205344 71 57 4.0 11.0 0.00 0.00 0.00 78 1015.2
20260507204840 70 289 3.0 10.0 0.00 0.00 0.00 76 1015.4
20260507204337 71 220 4.0 11.0 0.00 0.00 0.00 76 1015.4
20260507203835 71 202 4.0 6.0 0.00 0.00 0.00 76 1015.2
20260507203333 69 239 2.0 8.0 0.00 0.00 0.00 79 1015.2
20260507202829 70 212 4.0 9.0 0.00 0.00 0.00 77 1015.4
20260507202326 71 209 5.0 8.0 0.00 0.00 0.00 75 1015.2
20260507201821 71 278 2.0 6.0 0.00 0.00 0.00 75 1015.3
20260507201317 70 347 2.0 11.0 0.00 0.00 0.00 77 1015.4
20260507200814 70 214 3.0 9.0 0.00 0.00 0.00 76 1015.6
20260507200309 71 259 4.0 6.0 0.00 0.00 0.00 74 1015.5
20260507195805 70 210 3.0 9.0 0.00 0.00 0.00 74 1015.6
20260507195305 70 234 3.0 7.0 0.00 0.00 0.00 75 1015.4
20260507194800 70 237 5.0 8.0 0.00 0.00 0.00 75 1015.6
20260507194250 69 327 1.0 9.0 0.00 0.00 0.00 78 1015.6
20260507193747 70 213 1.0 7.0 0.00 0.00 0.00 76 1015.8
20260507193244 69 79 2.0 7.0 0.00 0.00 0.00 77 1015.8
20260507192740 70 223 4.0 10.0 0.00 0.00 0.00 74 1015.8
20260507192237 69 141 2.0 7.0 0.00 0.00 0.00 77 1016.0
20260507191733 69 224 2.0 13.0 0.00 0.00 0.00 78 1015.7
20260507191230 70 273 2.0 7.0 0.00 0.00 0.00 75 1016.0
20260507190727 70 227 0.0 7.0 0.00 0.00 0.00 76 1016.0
20260507190225 70 199 1.0 8.0 0.00 0.00 0.00 77 1016.0
20260507185724 70 204 3.0 9.0 0.00 0.00 0.00 76 1016.0
20260507185220 70 225 1.0 8.0 0.00 0.00 0.00 75 1016.1
20260507184718 69 10 3.0 8.0 0.00 0.00 0.00 77 1016.4
20260507184215 69 279 1.0 6.0 0.00 0.00 0.00 77 1016.4
20260507183712 68 272 5.0 8.0 0.00 0.00 0.00 78 1016.3
20260507183208 69 358 2.0 9.0 0.00 0.00 0.00 78 1016.5
20260507182705 69 235 1.0 6.0 0.00 0.00 0.00 77 1016.3
20260507182155 70 325 2.0 5.0 0.00 0.00 0.00 76 1016.4
20260507181652 69 221 1.0 6.0 0.00 0.00 0.00 78 1016.4
20260507181148 68 217 2.0 7.0 0.00 0.00 0.00 78 1016.3
20260507180645 68 263 3.0 9.0 0.00 0.00 0.00 78 1016.4
20260507180142 68 226 5.0 9.0 0.00 0.00 0.00 80 1016.3
20260507175638 69 220 3.0 5.0 0.00 0.00 0.00 77 1016.3
20260507175135 68 220 6.0 8.0 0.00 0.00 0.00 78 1016.3
20260507174631 68 299 5.0 7.0 0.00 0.00 0.00 79 1016.3
20260507174130 69 175 3.0 6.0 0.00 0.00 0.00 78 1016.3
20260507173621 68 280 3.0 6.0 0.00 0.00 0.00 79 1016.5
20260507173118 67 10 2.0 7.0 0.00 0.00 0.00 81 1016.6
20260507172614 68 310 1.0 9.0 0.00 0.00 0.00 81 1016.3
20260507172112 67 300 0.0 6.0 0.00 0.00 0.00 81 1016.5
20260507171607 67 310 3.0 8.0 0.00 0.00 0.00 81 1016.4
20260507171104 67 236 2.0 9.0 0.00 0.00 0.00 81 1016.4
20260507170601 67 300 3.0 6.0 0.00 0.00 0.00 81 1016.5
20260507170057 67 179 2.0 9.0 0.00 0.00 0.00 81 1016.5
20260507165553 67 257 4.0 7.0 0.00 0.00 0.00 80 1016.5
20260507165049 68 245 0.0 5.0 0.00 0.00 0.00 80 1016.5
20260507164546 67 214 2.0 6.0 0.00 0.00 0.00 81 1016.6
20260507164043 68 267 2.0 7.0 0.00 0.00 0.00 80 1016.5
20260507163541 69 266 2.0 5.0 0.00 0.00 0.00 78 1016.6
20260507163038 67 242 3.0 7.0 0.00 0.00 0.00 79 1016.5
20260507162533 68 340 0.0 5.0 0.00 0.00 0.00 79 1016.6
20260507162030 68 235 2.0 4.0 0.00 0.00 0.00 79 1016.5
20260507161526 68 300 1.0 7.0 0.00 0.00 0.00 79 1016.7
20260507161023 68 238 3.0 3.0 0.00 0.00 0.00 77 1016.5
20260507160519 68 230 4.0 7.0 0.00 0.00 0.00 77 1016.5
20260507160016 69 293 1.0 4.0 0.00 0.00 0.00 76 1016.6
20260507155511 69 323 0.0 2.0 0.00 0.00 0.00 77 1016.7
20260507155009 69 287 1.0 3.0 0.00 0.00 0.00 77 1016.6
20260507154505 68 20 0.0 3.0 0.00 0.00 0.00 80 1016.7
20260507154002 68 356 1.0 4.0 0.00 0.00 0.00 79 1016.6
20260507153459 67 302 1.0 3.0 0.00 0.00 0.00 78 1016.6
20260507152955 69 80 2.0 4.0 0.00 0.00 0.00 79 1016.6
20260507152451 67 79 2.0 4.0 0.00 0.00 0.00 80 1016.8
20260507151948 67 62 1.0 4.0 0.00 0.00 0.00 81 1016.9
20260507151444 66 311 0.0 2.0 0.00 0.00 0.00 85 1016.9
20260507150941 64 49 0.0 2.0 0.00 0.00 0.00 85 1016.7
20260507150438 65 337 1.0 2.0 0.00 0.00 0.00 85 1016.9
20260507145934 65 313 0.0 2.0 0.00 0.00 0.00 86 1016.7
20260507145430 65 343 0.0 3.0 0.00 0.00 0.00 87 1016.6
20260507144927 65 328 0.0 3.0 0.00 0.00 0.00 88 1016.7
20260507144424 64 321 0.0 1.0 0.00 0.00 0.00 90 1016.5
20260507143921 63 142 0.0 1.0 0.00 0.00 0.00 92 1016.6
20260507143418 63 318 0.0 2.0 0.00 0.00 0.00 92 1016.7
20260507142915 62 283 3.0 3.0 0.00 0.00 0.00 93 1016.4
20260507142410 61 277 2.0 3.0 0.00 0.00 0.00 94 1016.6
20260507141908 61 313 1.0 4.0 0.00 0.00 0.00 95 1016.4
20260507141404 61 320 2.0 4.0 0.00 0.00 0.00 95 1016.3
20260507140901 61 305 2.0 3.0 0.00 0.00 0.00 95 1016.3
20260507140357 60 9 1.0 2.0 0.00 0.00 0.00 96 1016.2
20260507135855 60 295 0.0 4.0 0.00 0.00 0.00 97 1016.2
20260507135352 59 308 2.0 3.0 0.00 0.00 0.00 97 1016.2
20260507134849 59 321 0.0 2.0 0.00 0.00 0.00 97 1016.1
20260507134345 59 322 0.0 1.0 0.00 0.00 0.00 97 1016.2
20260507133841 58 305 1.0 2.0 0.00 0.00 0.00 98 1015.9
20260507133337 58 339 0.0 2.0 0.00 0.00 0.00 98 1015.9
20260507132836 58 300 1.0 2.0 0.00 0.00 0.00 98 1015.9
20260507132332 58 240 1.0 2.0 0.00 0.00 0.00 98 1015.8
20260507131829 57 330 1.0 2.0 0.00 0.00 0.00 98 1015.9
20260507131325 57 15 0.0 2.0 0.00 0.00 0.00 98 1015.8
20260507130823 57 28 0.0 2.0 0.00 0.00 0.00 98 1015.7
20260507130320 57 288 0.0 2.0 0.00 0.00 0.00 98 1015.7
20260507125819 57 307 0.0 2.0 0.00 0.00 0.00 98 1015.7
20260507125316 57 353 0.0 2.0 0.00 0.00 0.00 98 1015.7
20260507124813 57 252 1.0 2.0 0.00 0.00 0.00 98 1015.8
20260507124309 57 315 0.0 2.0 0.00 0.00 0.00 98 1015.6
20260507123808 57 209 0.0 2.0 0.00 0.00 0.00 97 1015.7
20260507123305 56 322 0.0 1.0 0.00 0.00 0.00 97 1015.5
20260507122801 56 224 0.0 1.0 0.00 0.00 0.00 97 1015.6
20260507122256 56 217 0.0 0.0 0.00 0.00 0.00 97 1015.6
20260507121752 56 218 0.0 1.0 0.00 0.00 0.00 97 1015.7
20260507121248 57 333 0.0 1.0 0.00 0.00 0.00 97 1015.7
20260507120744 56 38 0.0 1.0 0.00 0.00 0.00 96 1015.7
20260507120241 56 0 0.0 0.0 0.00 0.00 0.00 96 1015.8
20260507115737 57 0 0.0 2.0 0.00 0.00 0.00 96 1015.8
20260507115233 57 43 0.0 1.0 0.00 0.00 0.00 96 1015.8
20260507114729 57 37 0.0 2.0 0.00 0.00 0.00 96 1015.7
20260507114227 57 50 0.0 2.0 0.00 0.00 0.00 96 1015.7
20260507113724 57 29 0.0 1.0 0.00 0.00 0.00 96 1015.9
20260507113221 57 343 0.0 1.0 0.00 0.00 0.00 96 1015.9
20260507112718 57 243 0.0 1.0 0.00 0.00 0.00 96 1015.9
20260507112215 57 190 1.0 2.0 0.00 0.00 0.00 95 1015.9
20260507111713 57 186 0.0 0.0 0.00 0.00 0.00 95 1015.8
20260507111210 58 214 0.0 1.0 0.00 0.00 0.00 95 1015.8
20260507110705 58 0 0.0 0.0 0.00 0.00 0.00 95 1015.8
20260507110202 58 261 2.0 2.0 0.00 0.00 0.00 95 1015.9
20260507105659 58 309 0.0 1.0 0.00 0.00 0.00 95 1015.9
20260507105155 58 326 1.0 1.0 0.00 0.00 0.00 95 1015.9
20260507104653 58 230 0.0 1.0 0.00 0.00 0.00 95 1016.1
20260507104149 58 284 0.0 1.0 0.00 0.00 0.00 95 1016.1
20260507103645 58 214 0.0 2.0 0.00 0.00 0.00 94 1016.0
20260507103142 58 242 0.0 1.0 0.00 0.00 0.00 94 1015.9
20260507102638 58 325 1.0 2.0 0.00 0.00 0.00 95 1016.1
20260507102134 58 292 1.0 2.0 0.00 0.00 0.00 95 1016.2
20260507101630 58 319 0.0 1.0 0.00 0.00 0.00 95 1016.2
20260507101126 58 326 0.0 2.0 0.00 0.00 0.00 94 1016.1
20260507100624 58 309 0.0 2.0 0.00 0.00 0.00 95 1016.1
20260507100122 58 289 1.0 2.0 0.00 0.00 0.00 95 1016.2
20260507095620 58 282 0.0 2.0 0.00 0.00 0.00 94 1016.0
20260507095116 58 319 0.0 2.0 0.00 0.00 0.00 94 1016.1
20260507094612 58 286 1.0 2.0 0.00 0.00 0.00 95 1016.2
20260507094109 58 345 0.0 2.0 0.00 0.00 0.00 95 1016.2
20260507093607 58 288 0.0 2.0 0.00 0.00 0.00 95 1016.3
20260507093105 58 309 0.0 1.0 0.00 0.00 0.00 95 1016.3
20260507092601 58 37 0.0 0.0 0.00 0.00 0.00 95 1016.5
20260507092058 58 359 1.0 2.0 0.00 0.00 0.00 95 1016.5
20260507091555 58 326 0.0 0.0 0.00 0.00 0.00 95 1016.4
20260507091051 59 344 1.0 2.0 0.00 0.00 0.00 95 1016.5
20260507090547 59 295 0.0 2.0 0.00 0.00 0.00 95 1016.4
20260507090044 59 294 0.0 2.0 0.00 0.00 0.00 95 1016.7
20260507085541 59 21 0.0 2.0 0.00 0.00 0.00 95 1016.6
20260507085038 59 344 0.0 2.0 0.00 0.00 0.00 95 1016.6
20260507084534 59 345 0.0 2.0 0.00 0.00 0.00 95 1016.7
20260507084031 59 3 2.0 2.0 0.00 0.00 0.00 95 1016.9
20260507083527 59 321 1.0 2.0 0.00 0.00 0.00 96 1017.0
20260507083025 59 326 0.0 2.0 0.00 0.00 0.00 96 1016.9
20260507082520 59 330 0.0 2.0 0.00 0.00 0.00 96 1017.0
20260507082017 59 326 1.0 2.0 0.00 0.00 0.00 96 1017.0
20260507081514 59 3 0.0 3.0 0.00 0.00 0.00 96 1017.0
20260507081011 59 284 0.0 3.0 0.00 0.00 0.00 95 1017.0
20260507080506 59 319 2.0 3.0 0.00 0.00 0.00 96 1017.1
20260507080003 59 319 1.0 3.0 0.00 0.00 0.00 95 1016.9
20260507075458 60 316 2.0 3.0 0.00 0.00 0.00 96 1017.0
20260507074955 59 296 0.0 2.0 0.00 0.00 0.00 95 1017.0
20260507074452 60 276 2.0 3.0 0.00 0.00 0.00 95 1017.1
20260507073950 60 285 2.0 4.0 0.00 0.00 0.00 95 1017.0
20260507073446 60 303 1.0 2.0 0.00 0.00 0.00 95 1017.0
20260507072943 60 307 1.0 4.0 0.00 0.00 0.00 95 1017.1
20260507072440 60 299 2.0 3.0 0.00 0.00 0.00 95 1016.9
20260507071937 60 283 2.0 4.0 0.00 0.00 0.00 95 1016.9
20260507071434 60 310 3.0 5.0 0.00 0.00 0.00 95 1017.2
20260507070931 60 289 3.0 6.0 0.00 0.00 0.00 95 1017.1
20260507070428 60 302 3.0 4.0 0.00 0.00 0.00 95 1017.1
20260507065925 60 303 3.0 5.0 0.00 0.00 0.00 95 1017.2
20260507065421 60 253 1.0 4.0 0.00 0.00 0.00 94 1017.1
20260507064919 60 290 2.0 5.0 0.00 0.00 0.00 94 1017.1
20260507064417 60 273 3.0 5.0 0.00 0.00 0.00 94 1017.2
20260507063915 60 285 1.0 3.0 0.00 0.00 0.00 94 1017.1
20260507063411 60 292 3.0 5.0 0.00 0.00 0.00 94 1017.3
20260507062909 60 261 2.0 5.0 0.00 0.00 0.00 94 1017.5
20260507062405 60 276 2.0 4.0 0.00 0.00 0.00 94 1017.3
20260507061902 60 196 0.0 5.0 0.00 0.00 0.00 94 1017.4
20260507061400 60 279 3.0 6.0 0.00 0.00 0.00 94 1017.4
20260507060853 60 292 5.0 8.0 0.00 0.00 0.00 94 1017.3
20260507060349 60 264 5.0 8.0 0.00 0.00 0.00 94 1017.5
20260507055846 60 280 4.0 6.0 0.00 0.00 0.00 94 1017.4
20260507055341 60 297 4.0 5.0 0.00 0.00 0.00 94 1017.6
20260507054839 60 265 1.0 8.0 0.00 0.00 0.00 94 1017.4
20260507054334 60 255 2.0 8.0 0.00 0.00 0.00 94 1017.3
20260507053832 60 265 4.0 7.0 0.00 0.00 0.00 94 1017.2
20260507053329 60 295 4.0 9.0 0.00 0.00 0.00 94 1017.3
20260507052828 60 250 2.0 4.0 0.00 0.00 0.00 94 1017.3
20260507052324 60 296 4.0 9.0 0.00 0.00 0.00 94 1017.2
20260507051822 61 287 8.0 11.0 0.00 0.00 0.00 94 1017.0
20260507051320 61 283 4.0 11.0 0.00 0.00 0.00 94 1017.2
20260507050816 61 275 10.0 12.0 0.00 0.00 0.00 93 1017.1
20260507050312 61 280 7.0 9.0 0.00 0.00 0.00 93 1017.1
20260507045810 61 289 5.0 9.0 0.00 0.00 0.00 93 1017.2
20260507045307 61 266 7.0 10.0 0.00 0.00 0.00 93 1017.1
20260507044803 61 271 6.0 9.0 0.00 0.00 0.00 92 1017.1
20260507044300 61 232 5.0 10.0 0.00 0.00 0.00 92 1017.1
20260507043756 61 308 4.0 7.0 0.00 0.00 0.00 92 1017.3
20260507043252 61 289 5.0 11.0 0.00 0.00 0.00 92 1017.1
20260507042749 61 253 0.0 5.0 0.00 0.00 0.00 92 1017.1
20260507042244 61 271 6.0 10.0 0.00 0.00 0.00 92 1016.9
20260507041742 61 287 9.0 9.0 0.00 0.00 0.00 91 1017.0
20260507041238 61 303 4.0 5.0 0.00 0.00 0.00 91 1016.9
20260507040735 61 297 2.0 10.0 0.00 0.00 0.00 90 1016.9
20260507040231 61 287 4.0 10.0 0.00 0.00 0.00 90 1017.0
20260507035727 61 273 4.0 8.0 0.00 0.00 0.00 90 1017.0
20260507035223 62 297 3.0 9.0 0.00 0.00 0.00 90 1016.8
20260507034721 62 272 3.0 8.0 0.00 0.00 0.00 89 1016.8
20260507034217 62 278 5.0 10.0 0.00 0.00 0.00 89 1016.7
20260507033716 62 269 4.0 14.0 0.00 0.00 0.00 88 1016.7
20260507033213 62 271 4.0 11.0 0.00 0.00 0.00 89 1016.6
20260507032710 62 294 5.0 9.0 0.00 0.00 0.00 89 1016.5
20260507032206 62 240 4.0 10.0 0.00 0.00 0.00 89 1016.6
20260507031703 62 284 3.0 7.0 0.00 0.00 0.00 90 1016.4
20260507031200 62 257 5.0 12.0 0.00 0.00 0.00 89 1016.4
20260507030656 62 281 7.0 13.0 0.00 0.00 0.00 89 1016.4
20260507030154 62 265 7.0 16.0 0.00 0.00 0.00 89 1016.2
20260507025651 62 283 12.0 16.0 0.00 0.00 0.00 89 1016.5
20260507025148 62 273 7.0 19.0 0.00 0.00 0.00 89 1016.3
20260507024646 62 261 7.0 13.0 0.00 0.00 0.00 89 1016.1
20260507024143 62 285 7.0 16.0 0.00 0.00 0.00 88 1016.2
20260507023638 62 278 6.0 15.0 0.00 0.00 0.00 88 1016.1
20260507023136 62 264 7.0 15.0 0.00 0.00 0.00 87 1016.0
20260507022633 62 250 6.0 19.0 0.00 0.00 0.00 87 1015.8
20260507022128 62 229 2.0 19.0 0.00 0.00 0.00 87 1016.0
20260507021625 63 274 6.0 18.0 0.00 0.00 0.00 86 1016.0
20260507021120 63 267 9.0 19.0 0.00 0.00 0.00 86 1016.0
20260507020619 63 255 8.0 19.0 0.00 0.00 0.00 86 1015.9
20260507020115 63 258 9.0 19.0 0.00 0.00 0.00 85 1015.9
20260507015614 63 278 8.0 19.0 0.00 0.00 0.00 85 1015.9
20260507015111 63 300 5.0 18.0 0.00 0.00 0.00 85 1015.9
20260507014607 64 252 9.0 14.0 0.00 0.00 0.00 86 1015.8
20260507014103 64 306 6.0 18.0 0.00 0.00 0.00 86 1015.9
20260507013600 64 286 7.0 14.0 0.00 0.00 0.00 85 1015.8
20260507013057 64 269 9.0 21.0 0.00 0.00 0.00 85 1015.6
20260507012554 64 271 11.0 16.0 0.00 0.00 0.00 86 1015.9
20260507012049 64 273 12.0 18.0 0.00 0.00 0.00 85 1015.8
20260507011547 64 214 5.0 13.0 0.00 0.00 0.00 85 1015.7
20260507011038 64 266 8.0 17.0 0.00 0.00 0.00 85 1015.6
20260507010532 65 273 6.0 13.0 0.00 0.00 0.00 84 1015.6
20260507010029 64 246 7.0 24.0 0.00 0.00 0.00 86 1015.7
20260507005527 64 250 5.0 21.0 0.00 0.00 0.00 86 1015.6
20260507005023 65 281 17.0 19.0 0.00 0.00 0.00 84 1015.7
20260507004520 65 265 8.0 15.0 0.00 0.00 0.00 83 1015.5
20260507004018 65 217 9.0 18.0 0.00 0.00 0.00 83 1015.6
20260507003513 65 284 13.0 20.0 0.00 0.00 0.00 84 1015.6
20260507003008 65 273 11.0 17.0 0.00 0.00 0.00 83 1015.7
20260507002505 64 281 2.0 19.0 0.00 0.00 0.00 86 1015.7
20260507002001 65 280 15.0 20.0 0.00 0.00 0.00 85 1015.7
20260507001457 65 263 8.0 20.0 0.00 0.00 0.00 84 1015.7
20260507000955 65 267 6.0 20.0 0.00 0.00 0.00 84 1015.7
20260507000451 66 263 4.0 21.0 0.00 0.00 0.00 84 1015.6
20260506235946 67 258 2.0 15.0 0.00 0.00 0.00 82 1015.5
20260506235444 66 173 3.0 13.0 0.00 0.00 0.00 82 1015.5
20260506234939 66 280 7.0 21.0 0.00 0.00 0.00 80 1015.7
20260506234437 66 291 11.0 23.0 0.00 0.00 0.00 81 1015.5
20260506233934 66 271 7.0 17.0 0.00 0.00 0.00 82 1015.5
20260506233431 67 269 10.0 17.0 0.00 0.00 0.00 80 1015.6
20260506232928 68 316 8.0 17.0 0.00 0.00 0.00 79 1015.6
20260506232424 67 281 4.0 17.0 0.00 0.00 0.00 81 1015.7